RH
82 81 82 83 83 80 72 62 62 69 78 86 88 89 88 87 82 77 72 73 72 71 70 69 68 67 66 64 63 66 72 84 92 95 96 97 98 98 98 98 99 99 99 99 99 99 99 98 98 97 97 96 96 97 98 99 98 94 86 80 81 86 88 83 78 74 73 74 76 78 82 86 90 93 95 95 96 97 98 99 99 98 98 97 97 96
81 81 82 83 83 81 74 60 62 71 81 86 88 89 89 88 82 76 72 72 73 72 72 70 69 69 68 67 67 68 71 76 81 86 88 92 95 98 99 99 99 99 99 99 99 99 99 98 98 98 97 96 95 95 97 99 99 96 90 86 89 94 96 90 83 77 73 74 74 75 78 84 89 94 96 96 96 97 97 98 98 98 98 98 97 96
82 82 82 83 84 83 78 67 67 74 84 87 89 90 90 88 83 78 74 74 73 73 73 73 72 72 71 70 69 70 70 70 70 72 74 79 86 92 97 99 99 99 99 99 99 98 98 98 98 98 98 96 94 92 95 98 99 98 95 92 94 98 98 94 88 81 75 74 73 72 73 78 86 92 94 94 94 96 97 98 98 98 98 97 97 97
83 83 84 86 86 85 83 76 76 79 87 89 90 90 90 88 85 80 77 76 76 75 74 75 76 76 75 72 70 69 70 69 68 66 67 73 81 89 96 98 99 99 99 99 99 98 98 98 98 97 95 90 88 87 92 96 98 99 98 97 97 98 98 96 92 85 78 74 72 71 70 74 81 88 92 91 92 94 96 98 98 97 97 97 97 97
84 84 86 87 87 86 84 81 81 83 88 89 90 90 90 88 86 82 80 80 79 78 77 76 76 77 78 76 73 71 71 70 67 65 65 70 77 86 93 96 98 98 98 99 98 98 98 98 98 95 89 81 78 79 85 92 97 99 99 98 98 98 98 98 95 90 81 76 72 70 68 71 77 85 91 90 90 93 96 98 98 97 96 97 98 98
86 86 88 88 88 87 86 86 85 85 88 89 90 90 90 88 86 86 86 85 84 82 78 76 76 76 77 78 77 76 74 71 66 62 62 66 72 80 89 94 96 98 98 98 98 98 98 98 97 93 84 74 69 69 77 88 95 99 99 99 99 98 98 98 97 92 85 77 73 70 68 69 74 83 90 90 92 94 97 98 97 96 96 98 98 98
88 87 88 88 88 88 88 88 87 86 88 90 90 90 89 89 88 89 89 89 86 82 76 74 74 75 77 78 80 80 78 72 66 61 59 62 67 74 84 90 94 96 98 98 98 98 98 98 97 92 84 72 63 61 69 84 93 98 99 100 99 98 98 98 98 95 88 80 74 71 68 67 73 82 90 90 92 95 98 98 97 96 96 98 99 98
87 86 86 86 86 87 88 88 88 88 88 90 90 90 90 90 90 90 90 87 83 78 76 74 74 74 76 78 80 82 82 76 68 60 58 60 64 71 79 86 90 93 96 98 98 99 99 98 96 92 85 72 60 55 62 79 90 96 98 99 99 99 98 98 98 95 88 80 76 72 68 66 71 80 90 92 93 95 97 97 96 96 96 98 99 99
86 85 84 84 86 87 89 89 89 89 88 90 90 91 90 90 90 90 88 83 79 77 77 76 75 74 74 76 80 83 86 81 74 65 60 60 63 68 76 83 88 92 96 98 98 98 98 98 95 92 88 76 62 53 56 74 88 96 99 99 99 99 98 98 97 93 86 80 76 74 70 66 70 78 89 92 93 94 95 96 96 96 96 98 99 99
85 84 84 84 86 88 89 89 88 88 87 88 90 91 91 91 91 90 88 83 79 78 79 79 78 76 74 76 78 83 88 86 80 72 65 63 64 68 75 85 90 94 96 98 98 98 98 96 95 93 89 79 65 54 52 71 86 95 99 99 99 99 99 98 96 92 84 80 77 74 71 66 70 78 88 90 90 90 92 94 94 94 94 98 99 99
84 84 84 84 86 88 88 87 86 86 85 87 89 90 91 91 90 90 90 88 84 81 80 79 78 78 78 77 79 84 90 88 81 73 65 63 65 71 79 88 93 96 96 97 97 97 96 96 96 94 90 80 66 56 52 69 84 94 99 99 99 99 99 98 95 90 84 82 79 76 71 67 70 77 86 88 88 87 88 91 92 93 92 96 98 99
84 84 85 86 88 88 86 85 86 86 86 88 90 90 91 90 90 90 90 90 90 88 84 80 78 77 79 82 85 89 93 90 84 74 60 60 64 74 85 90 92 92 92 93 94 95 95 96 96 94 92 80 68 57 54 69 82 92 98 99 99 99 99 98 94 90 84 84 82 77 70 66 69 76 85 88 87 86 87 90 92 93 92 95 97 99
85 85 86 88 88 88 86 84 84 86 87 89 90 90 91 90 90 90 90 90 90 90 89 84 79 76 76 84 90 94 95 93 86 74 60 60 68 80 92 94 92 90 89 90 92 94 94 94 94 94 92 83 70 58 55 71 83 92 98 99 99 99 99 98 94 90 86 86 84 79 71 66 68 74 83 87 87 87 88 91 93 94 94 93 95 97
86 86 87 88 88 87 85 85 85 86 88 89 90 90 90 90 90 90 90 90 90 90 90 88 84 79 75 82 90 95 96 93 84 72 61 64 74 87 97 96 94 92 90 90 91 92 92 93 94 93 92 85 72 60 57 72 84 92 98 99 100 100 99 98 95 92 88 87 85 81 74 68 68 73 81 86 88 89 89 92 94 95 95 94 95 97
86 86 88 89 88 87 86 86 86 88 89 90 90 90 90 90 90 90 90 90 90 90 90 90 87 82 76 80 88 94 95 93 85 74 65 66 76 88 98 97 95 93 92 92 92 92 93 95 95 95 93 86 73 62 58 75 86 93 97 99 100 100 99 99 96 94 90 88 86 83 76 70 69 72 79 86 89 90 90 91 92 94 94 94 96 96
86 87 88 88 88 87 86 86 88 89 90 90 90 90 90 90 90 90 90 90 91 91 92 92 89 84 76 78 85 92 94 95 92 85 77 71 74 84 96 96 94 92 90 92 93 94 96 97 97 95 92 82 70 61 60 77 88 93 97 99 100 100 100 99 98 96 92 90 87 84 80 74 72 74 79 85 89 91 90 90 90 92 93 94 95 96
88 88 89 89 89 88 87 88 89 90 90 90 90 90 90 90 90 90 90 91 92 92 92 92 92 90 84 78 81 88 92 93 93 90 85 77 74 79 90 92 92 90 89 91 94 97 98 97 95 91 84 74 65 58 61 76 87 93 97 99 100 100 100 100 99 98 95 92 89 86 84 78 74 75 79 84 88 91 91 90 90 91 92 94 94 94
89 90 90 89 89 89 88 89 89 89 90 90 90 90 90 90 89 90 90 91 92 92 92 92 92 92 92 86 83 84 90 92 92 90 87 80 76 77 83 88 90 90 88 92 96 98 98 96 90 83 77 70 61 56 60 74 85 92 97 99 100 100 100 100 99 98 97 94 91 89 88 82 78 76 78 82 86 89 90 90 90 90 91 92 92 92
90 90 90 90 89 89 89 89 89 89 90 90 90 90 90 90 89 89 90 91 92 92 92 92 92 92 92 90 85 82 87 92 93 92 90 84 80 78 81 87 90 90 89 92 96 99 99 97 92 85 78 74 65 58 61 73 83 91 97 99 100 100 100 99 99 98 98 96 94 92 90 86 80 76 78 80 83 85 87 89 90 90 88 89 89 90
90 90 90 89 88 88 88 89 89 89 90 90 90 90 90 89 90 90 90 91 92 92 92 92 92 90 90 84 80 80 87 92 94 94 94 90 84 81 86 92 95 95 92 94 97 99 99 98 96 90 83 77 71 65 64 74 83 92 97 99 100 100 100 99 98 98 98 96 95 94 93 87 81 76 77 78 78 77 80 85 88 88 86 85 86 87
90 89 88 86 86 87 88 89 89 89 89 89 88 88 88 89 90 90 90 91 91 91 91 91 91 90 86 82 80 81 88 92 93 94 95 93 88 85 91 98 99 98 97 96 97 98 99 98 97 93 85 78 72 68 67 75 84 92 98 99 99 100 100 99 98 98 97 96 95 94 94 88 81 76 76 78 76 72 70 76 82 85 84 83 83 85
85 83 80 80 83 86 89 88 88 88 88 88 88 88 89 90 90 90 90 90 91 91 90 90 88 85 81 80 80 83 90 93 94 94 94 95 90 88 94 98 99 99 98 96 96 97 99 99 98 95 88 79 73 69 70 78 85 92 98 99 100 100 100 99 99 98 97 96 96 95 93 87 80 76 75 78 77 72 65 69 76 81 83 82 83 86
87 87 86 85 85 86 88 88 87 86 86 87 88 90 90 90 90 90 90 90 90 90 88 85 82 80 79 80 81 84 90 93 94 94 94 96 93 92 95 99 99 98 97 94 95 97 99 99 97 93 87 81 76 72 73 80 87 93 98 100 100 100 100 100 99 99 98 97 96 95 92 86 80 75 73 77 78 76 70 70 73 78 83 84 86 88
87 85 83 83 84 86 88 88 88 88 88 89 90 90 90 90 90 90 90 90 88 85 82 81 82 84 84 82 82 84 88 93 94 94 94 96 94 93 95 98 100 99 97 94 96 98 99 99 97 93 85 82 77 74 74 81 88 94 99 100 100 100 100 100 100 99 99 98 96 94 91 86 80 76 72 74 78 79 77 77 79 82 85 88 90 93
84 84 84 87 88 89 89 90 90 90 90 90 90 90 90 90 90 90 88 87 86 85 85 88 89 89 85 82 82 84 88 93 94 94 94 94 92 92 94 98 99 99 98 96 96 98 99 99 97 92 84 83 79 76 76 81 88 94 98 100 100 100 100 100 100 99 99 98 96 94 90 86 81 78 74 74 77 80 80 83 86 90 92 93 94 96
87 88 89 89 90 90 90 90 90 89 90 90 90 90 90 90 90 89 88 88 88 89 90 90 90 88 83 82 82 84 88 92 94 94 94 94 92 92 95 98 99 99 98 96 97 98 98 99 98 93 84 84 80 77 76 82 88 93 98 100 100 100 100 100 100 100 99 99 97 94 90 87 84 81 78 77 78 81 83 84 87 91 95 96 97 98
88 88 88 89 89 89 89 89 89 89 89 89 90 90 90 90 90 90 90 90 90 90 90 90 89 87 84 83 83 84 88 92 94 94 94 94 94 94 96 98 99 99 99 98 98 98 98 99 97 92 85 85 82 78 78 83 88 93 99 100 100 100 100 100 100 100 99 99 98 96 93 92 88 85 81 80 80 82 83 84 85 88 92 96 98 98
86 86 86 87 88 88 89 89 89 88 88 89 89 90 90 90 89 90 90 90 90 89 89 90 90 89 87 85 83 83 87 92 94 94 94 95 95 95 96 97 98 99 100 99 99 99 99 99 97 93 88 87 83 79 80 84 88 92 98 99 100 100 100 100 100 100 100 99 98 98 98 96 93 90 84 83 83 83 83 84 85 88 92 96 98 99
84 85 86 87 88 88 88 88 88 87 87 88 89 90 90 90 89 90 90 89 88 88 88 88 89 89 88 85 83 83 87 92 94 94 94 95 95 96 97 98 98 99 100 100 100 100 100 100 98 95 92 90 85 80 81 84 88 92 97 99 100 100 100 100 100 100 100 99 98 98 99 98 96 93 88 86 85 85 84 85 88 92 96 98 99 100
86 86 86 87 88 88 88 87 86 86 86 88 89 89 89 89 89 89 88 87 86 86 87 88 88 89 89 87 86 86 87 92 93 94 94 95 96 96 98 98 98 99 99 99 100 100 100 100 98 96 96 92 88 84 84 86 88 91 95 98 100 100 100 100 100 100 100 99 99 99 99 98 97 94 90 89 88 87 86 88 91 95 99 99 100 100
87 87 86 87 87 88 88 87 87 86 86 88 89 89 89 90 89 88 87 86 86 86 88 88 89 89 90 90 90 90 88 92 94 94 94 95 96 97 98 99 99 99 98 98 98 99 100 100 100 99 98 95 92 89 88 88 89 91 94 98 99 100 100 100 100 100 100 99 99 99 99 98 97 95 92 91 90 90 90 91 93 96 99 99 100 100
87 87 87 87 88 88 88 87 87 87 87 88 88 89 90 90 89 88 87 86 86 87 88 88 89 89 90 91 92 90 89 92 94 94 94 95 96 97 98 99 99 99 98 98 98 98 99 100 100 100 99 96 93 92 92 91 90 91 93 98 99 100 100 100 100 100 100 99 99 99 99 98 97 95 94 94 94 93 93 94 95 97 99 99 100 100
88 88 88 88 88 88 88 88 88 88 88 88 89 89 90 90 90 89 89 88 88 88 89 90 90 90 90 91 91 90 91 93 94 94 94 95 96 98 99 99 100 99 99 99 99 99 99 100 100 100 99 98 96 94 94 93 92 92 94 98 99 100 100 100 100 100 100 100 100 99 99 98 97 96 96 97 97 97 97 97 97 98 99 99 99 99
88 88 88 88 88 88 88 89 89 89 89 89 89 90 90 90 90 90 90 90 90 90 90 90 91 91 92 91 91 92 93 95 95 95 94 95 96 98 99 99 100 100 99 99 100 100 100 100 100 100 100 99 98 97 97 95 92 92 94 98 100 100 100 100 100 100 100 100 100 100 100 99 98 98 98 98 98 98 98 99 99 98 99 99 99 99
88 88 88 88 88 88 89 89 89 89 89 90 90 90 90 90 90 90 90 90 90 90 90 91 92 92 92 92 92 92 94 95 95 95 94 95 96 98 99 99 100 100 99 99 99 100 100 100 100 100 100 99 98 98 98 94 92 91 95 98 100 100 100 100 100 100 100 100 100 100 100 99 99 98 98 98 98 98 98 99 99 100 99 98 98 98
88 88 88 88 88 88 89 89 89 90 90 90 90 90 90 90 90 91 91 91 91 91 91 92 92 92 92 92 93 94 95 95 95 95 95 95 96 97 98 99 100 100 99 99 99 99 100 99 100 100 99 99 99 99 98 94 92 91 96 99 100 99 99 100 100 100 100 100 100 100 100 100 99 98 97 97 98 98 98 98 99 100 100 99 98 97
88 88 88 88 88 88 89 89 89 90 90 90 90 90 90 90 91 92 92 92 92 92 92 92 92 92 92 93 94 94 95 95 95 95 95 95 96 97 98 99 100 100 99 99 99 100 99 99 99 99 100 98 97 97 96 93 91 92 98 99 99 99 99 100 100 99 100 100 100 100 100 99 99 98 97 98 98 98 98 98 98 100 100 99 98 98
88 88 88 88 88 88 89 89 90 90 90 90 90 90 91 91 92 92 92 92 92 92 92 92 92 93 93 93 94 94 95 95 96 96 96 96 96 97 98 99 100 100 99 99 99 100 99 99 99 99 100 99 98 96 95 92 92 94 98 100 100 99 99 100 100 100 100 100 100 100 99 99 99 99 99 99 99 99 98 98 98 99 100 100 99 99
88 88 88 88 88 89 89 89 90 90 90 90 90 90 91 92 92 92 92 92 92 92 92 92 93 93 93 94 94 94 95 96 96 96 96 96 96 97 98 99 100 100 100 99 99 99 99 100 99 99 99 99 98 96 93 92 93 96 99 99 99 99 99 100 100 100 100 100 100 100 100 98 98 99 100 100 100 100 100 98 99 100 100 100 100 100
87 88 88 88 88 89 89 89 90 90 90 90 90 91 91 92 92 92 92 92 92 92 92 93 93 93 94 94 94 95 95 96 96 96 96 96 97 97 98 99 100 100 100 100 99 99 99 99 99 99 100 99 96 93 92 92 95 97 99 99 99 99 99 100 100 100 100 100 100 99 100 99 99 99 100 100 100 100 100 99 99 100 100 100 100 100
87 88 88 88 89 89 89 90 90 90 90 90 90 91 92 92 92 92 93 92 92 92 92 92 93 94 94 94 94 95 95 96 96 96 96 96 96 97 98 99 100 100 100 100 100 99 99 99 100 100 100 100 96 92 92 95 97 99 99 99 99 99 99 100 100 100 100 100 100 99 99 99 100 100 100 100 100 100 100 100 100 100 100 100 100 99
87 87 88 88 89 89 90 90 90 90 90 90 90 91 92 92 92 92 93 93 93 92 92 92 93 94 94 95 95 95 95 95 95 96 96 96 96 97 98 99 99 100 100 100 100 99 99 100 100 100 100 100 97 94 93 97 99 100 99 99 99 99 99 99 100 100 100 100 100 99 99 100 100 100 100 100 100 100 100 100 100 100 100 100 99 98
87 87 88 88 89 89 90 90 90 90 90 90 90 91 92 92 92 92 92 93 93 93 92 92 93 94 94 95 95 95 95 95 96 96 96 96 97 98 98 99 100 100 100 100 100 100 99 100 100 100 100 99 96 94 96 99 99 99 100 99 98 96 97 99 100 100 100 100 100 100 100 100 100 100 100 100 100 100 100 100 100 100 100 100 100 99
87 87 88 88 89 89 90 90 90 90 90 90 90 91 92 92 92 92 92 93 93 93 92 92 93 94 94 95 96 96 96 96 96 96 97 97 97 98 99 99 100 100 100 100 100 100 100 100 100 100 100 99 96 95 98 99 99 99 100 99 98 96 97 99 99 100 100 100 100 100 100 100 100 100 100 100 100 100 100 100 100 100 100 100 100 99
87 87 88 88 88 89 89 90 90 90 90 90 90 91 92 92 92 92 92 93 93 93 93 93 93 94 95 95 96 96 96 96 97 97 97 98 98 98 99 100 100 100 100 100 100 100 100 100 100 100 100 98 97 97 98 99 99 99 99 99 98 97 97 98 98 99 100 99 99 99 99 100 100 100 100 100 100 100 100 100 100 100 100 100 99 99
88 88 88 88 88 89 89 90 90 90 90 90 90 91 92 92 92 92 93 93 93 93 93 93 94 94 94 95 95 96 96 97 97 97 98 98 98 99 99 100 100 100 100 100 100 100 100 100 100 100 100 98 98 98 99 99 99 99 100 99 98 97 97 97 98 98 99 99 99 99 99 99 99 100 100 100 100 100 100 100 100 100 100 100 99 99
88 88 88 88 88 88 89 89 90 90 90 90 90 91 92 92 92 92 93 93 93 93 93 94 94 94 94 95 95 96 96 97 97 97 97 98 98 99 99 100 100 100 100 100 100 100 100 100 100 100 100 98 98 99 99 98 98 99 99 99 98 97 96 97 98 98 98 98 98 98 98 99 99 99 100 100 100 100 100 100 100 100 100 100 99 99
87 87 88 88 88 88 89 89 90 90 90 90 90 91 92 92 92 92 93 93 93 93 94 94 94 94 94 95 96 96 96 96 96 97 97 97 98 98 99 100 100 100 100 100 100 100 100 100 100 100 99 98 98 99 99 98 98 98 99 99 98 96 96 97 98 99 98 98 98 98 98 98 99 99 99 100 100 100 100 100 100 100 100 100 99 99
87 87 88 88 88 88 89 89 89 90 90 90 90 91 92 92 92 92 93 93 93 93 94 94 94 94 95 95 96 96 96 96 96 97 97 97 98 98 99 100 100 100 100 100 100 100 100 100 100 100 99 98 98 98 98 98 98 98 99 99 98 96 95 96 97 98 99 99 99 98 98 98 98 99 99 99 100 100 100 100 100 100 100 100 99 99
87 87 88 88 88 88 88 89 89 90 90 90 90 91 92 92 92 92 93 93 93 94 94 94 94 94 94 95 96 96 96 97 97 97 97 97 98 98 98 100 100 100 100 100 100 100 100 100 100 100 99 98 98 99 99 99 99 99 99 99 99 97 95 96 97 97 98 99 99 98 98 98 98 98 98 99 99 100 100 100 99 99 99 100 99 99
87 88 88 88 88 88 88 89 89 90 90 90 90 91 92 92 92 92 93 93 93 94 94 94 94 94 94 95 95 96 96 96 97 97 97 98 98 98 98 99 100 100 100 100 100 100 100 100 100 100 100 100 100 100 100 100 99 98 98 99 99 98 97 97 96 96 96 98 99 99 98 98 98 98 99 99 99 100 100 99 99 99 99 99 100 99
Wind_Speed
24 25 26 26 27 28 30 29 27 25 24 24 25 26 27 29 29 28 25 22 20 19 19 20 20 20 20 21 21 20 20 20 19 19 20 22 23 23 23 22 21 21 22 22 22 22 24 25 24 23 27 31 34 33 31 31 34 39 43 43 42 42 42 43 44 45 45 43 39 34 32 32 33 35 38 40 43 45 46 47 48 49 48 48 49 50
25 25 25 25 26 28 30 29 26 24 24 24 25 26 27 29 30 28 25 22 20 19 19 20 20 20 21 21 21 21 21 22 22 22 23 24 24 24 23 23 22 22 22 23 23 23 23 22 21 21 24 30 34 35 32 30 32 38 43 44 44 43 43 44 44 45 45 44 40 35 31 31 32 34 36 39 42 45 46 48 49 50 49 48 48 49
25 25 25 26 27 28 29 29 27 24 23 24 25 26 27 29 30 29 27 23 20 19 19 20 20 21 21 22 22 22 22 22 23 24 25 26 26 25 24 23 22 22 22 23 24 23 22 21 20 21 25 30 34 36 33 30 30 36 43 46 46 44 44 44 44 45 46 45 41 36 32 31 31 33 35 38 41 44 46 48 50 51 50 48 48 48
25 25 26 27 28 28 29 28 26 24 23 24 25 26 27 29 30 30 27 24 22 20 20 20 20 21 22 23 23 23 23 23 23 24 25 26 26 25 24 22 21 21 22 24 24 23 20 20 22 24 28 32 35 37 35 31 29 33 41 46 47 45 44 44 45 45 46 46 42 37 33 31 31 32 34 37 40 43 45 48 50 51 50 48 47 47
24 24 25 27 28 28 29 28 26 24 23 24 25 26 27 29 30 29 27 25 24 23 22 21 21 21 22 23 23 23 23 22 22 23 24 25 25 25 23 22 21 21 22 23 23 22 20 20 23 27 31 34 36 38 37 33 30 31 38 45 47 46 44 44 44 46 47 46 43 38 34 31 31 32 34 35 38 41 44 47 49 50 49 48 47 47
25 25 25 26 26 27 28 27 25 24 24 25 26 26 27 29 29 29 28 26 26 25 24 22 21 21 21 22 23 23 23 22 22 23 24 24 25 24 23 22 21 20 20 21 22 22 20 20 23 27 31 33 35 37 38 35 31 31 35 42 46 47 45 44 44 46 47 46 44 40 36 33 32 32 33 35 37 40 44 46 48 49 49 48 48 48
26 25 25 25 25 26 26 26 24 23 24 25 27 28 28 29 29 28 27 27 27 26 24 23 22 21 21 21 22 22 22 22 22 22 23 24 24 24 23 22 21 20 19 20 21 22 21 22 24 26 28 29 32 36 38 35 32 31 33 38 43 46 46 44 44 46 46 46 44 41 38 35 33 33 34 34 36 40 44 46 48 49 49 49 49 49
26 26 25 25 25 25 26 25 23 22 22 25 27 28 29 29 28 27 27 27 27 26 24 23 21 21 20 20 21 21 21 21 21 21 22 23 23 24 23 22 21 20 20 20 21 22 22 23 24 25 26 26 29 33 37 35 32 29 29 33 38 43 44 44 44 45 46 45 43 41 39 36 34 34 34 34 36 39 43 45 47 48 49 49 49 48
25 26 25 25 25 25 25 24 23 22 22 23 25 26 27 27 27 27 29 28 27 26 24 23 22 20 20 19 19 19 19 19 19 20 21 22 23 23 22 20 20 20 21 21 22 22 23 24 25 25 25 25 26 30 35 35 32 28 26 27 32 37 40 42 44 46 45 44 43 41 39 37 36 35 35 34 36 38 41 44 46 48 49 50 49 48
24 25 25 24 24 24 24 23 23 23 22 23 23 24 23 23 25 28 30 30 28 26 24 24 23 22 19 18 18 17 17 18 18 19 20 21 22 22 21 20 19 19 21 22 22 23 24 24 25 25 25 24 24 27 34 37 33 27 22 23 27 31 36 40 44 46 45 44 42 41 39 38 37 36 36 35 35 37 40 43 46 48 50 51 50 49
24 24 24 24 24 23 22 23 23 23 23 23 22 22 21 21 23 25 28 30 30 28 26 24 23 22 20 18 17 16 16 16 17 18 20 21 22 22 21 19 18 19 20 22 24 25 25 25 25 25 25 24 23 26 33 38 35 27 19 20 24 29 34 39 43 45 45 43 42 41 39 38 38 38 39 37 36 36 38 42 46 49 52 52 51 50
23 23 23 23 23 23 22 22 22 22 21 21 21 21 21 22 23 24 25 27 29 29 29 26 23 20 19 18 16 15 14 14 16 18 20 21 22 22 21 20 19 20 21 24 25 26 26 26 26 26 25 24 23 25 32 37 35 26 19 18 22 28 34 39 43 44 44 43 42 41 40 39 39 40 40 39 36 35 36 40 45 49 53 53 52 51
23 22 22 23 23 22 21 21 21 20 20 20 20 21 22 23 24 24 24 25 27 28 29 28 25 21 17 15 14 14 13 14 16 19 20 21 22 22 21 20 19 20 22 25 26 27 27 26 27 27 26 24 23 25 31 35 34 27 21 17 19 27 34 39 42 44 43 42 41 41 40 39 40 41 41 39 36 34 34 37 42 48 52 54 53 51
22 22 22 23 22 21 20 20 20 20 20 20 21 22 23 24 24 24 24 25 26 28 28 28 27 23 18 15 13 13 13 14 15 18 20 21 22 21 20 20 19 19 21 24 26 27 27 27 27 27 27 25 24 25 30 34 32 27 22 17 19 26 34 39 42 43 42 41 40 40 39 39 40 40 40 39 36 33 33 35 39 45 49 52 52 51
22 22 23 23 22 21 20 19 20 20 21 21 22 24 25 25 25 24 24 25 26 27 27 27 26 24 19 16 14 13 14 14 15 17 20 22 22 20 20 20 19 19 20 22 25 27 27 27 28 28 27 25 24 25 30 33 31 26 21 16 18 27 34 38 41 43 42 41 40 39 39 39 39 39 40 39 36 34 33 34 37 41 45 47 48 49
23 23 24 23 22 21 20 19 20 20 21 22 23 23 24 24 24 24 24 24 25 25 24 25 26 25 21 16 13 13 14 14 15 17 20 22 22 20 20 20 20 20 20 22 24 25 25 26 27 27 26 24 24 27 31 33 30 26 20 15 18 27 33 37 41 43 42 41 40 39 39 38 38 38 39 39 37 35 34 34 36 38 41 43 45 46
24 24 23 22 22 21 21 20 20 21 22 23 24 23 23 23 24 25 24 24 23 22 21 22 23 25 24 18 14 12 14 16 17 18 20 22 22 20 20 21 22 22 22 23 23 22 20 22 24 25 24 24 25 29 33 33 30 25 20 14 16 24 32 37 40 43 43 41 40 40 39 38 38 38 38 39 38 37 36 35 36 37 39 41 43 44
24 23 22 22 21 21 22 21 22 22 23 23 23 23 23 25 26 26 24 22 21 21 21 21 21 22 24 26 20 14 14 18 20 19 20 22 23 21 19 20 22 23 23 23 21 18 16 19 21 22 23 23 26 31 34 33 28 23 18 14 15 23 31 36 40 42 43 42 41 40 39 39 38 37 38 38 38 37 37 37 37 38 39 40 41 42
23 22 21 21 22 23 24 24 23 23 22 22 22 23 24 26 26 25 22 20 20 20 21 21 21 22 24 28 25 19 16 19 20 20 21 22 22 20 18 19 21 22 23 23 20 16 15 17 20 21 21 22 27 32 35 33 27 21 17 14 16 24 31 36 40 42 43 42 41 40 40 39 38 38 38 38 37 37 37 38 38 38 39 39 40 41
23 22 22 22 24 26 27 26 24 22 21 22 23 24 25 26 25 23 20 20 20 21 22 22 23 25 27 29 26 21 17 18 19 21 21 22 20 17 14 15 18 21 23 24 20 16 14 18 21 22 21 23 28 33 35 32 27 21 17 13 16 25 32 36 40 42 43 43 41 41 40 39 38 38 38 38 37 36 36 38 39 39 39 39 40 40
24 25 26 27 28 29 28 27 25 24 22 23 24 26 26 26 24 21 20 21 22 23 23 23 25 27 28 29 26 21 15 17 19 22 22 21 18 15 12 12 15 19 23 24 21 16 14 18 22 23 22 24 29 34 36 33 26 19 16 13 16 26 33 36 39 42 43 43 42 41 40 39 39 38 39 39 38 37 36 37 39 40 40 40 40 40
24 26 27 28 29 28 27 27 26 24 23 23 24 24 24 24 23 22 22 22 23 24 25 26 28 29 29 29 25 19 14 15 18 20 21 22 19 13 10 12 14 17 21 24 22 17 14 18 22 23 23 24 29 34 37 34 27 19 15 12 17 27 33 36 38 41 43 43 42 41 40 39 39 39 39 40 40 39 38 38 39 41 42 42 41 41
23 25 28 30 30 28 27 26 26 25 24 23 24 24 23 23 23 23 23 24 26 28 29 31 30 29 27 26 23 18 14 13 14 16 20 23 23 17 11 12 13 15 19 23 22 17 13 18 22 23 22 25 28 33 37 36 29 20 14 11 18 29 32 35 38 40 42 43 42 41 40 39 39 39 39 40 40 41 41 41 41 42 43 43 43 43
26 28 30 29 28 26 25 25 25 25 25 25 25 24 23 22 22 23 24 26 28 29 30 29 28 28 27 25 23 19 14 11 11 13 17 21 23 20 14 12 13 15 18 21 21 16 11 18 22 23 22 24 27 32 37 37 30 20 12 8 20 33 32 34 37 40 42 43 42 41 40 39 39 39 39 40 40 41 42 43 43 44 44 45 44 44
27 27 27 26 24 23 23 23 24 23 23 23 23 23 23 22 23 24 26 27 27 27 26 26 27 28 28 26 23 19 13 10 10 12 16 19 20 18 12 11 13 15 17 21 20 15 11 17 22 24 23 24 27 32 38 37 30 19 10 6 17 31 33 33 36 40 42 42 42 41 40 39 39 39 39 39 39 40 41 42 43 44 45 45 45 45
24 23 22 22 22 22 22 22 22 22 21 21 21 21 21 22 22 23 24 23 23 22 22 24 26 27 27 26 23 19 13 10 10 11 13 16 18 16 12 11 13 14 16 20 21 15 11 17 23 25 23 24 27 33 39 38 30 18 9 6 13 27 35 33 35 39 42 42 42 41 40 39 39 39 39 39 38 38 38 39 41 43 44 45 45 45
20 20 20 21 21 21 21 21 20 20 20 20 20 19 19 19 19 20 20 20 20 21 22 24 26 27 27 26 24 20 14 11 9 10 12 14 17 17 14 13 13 13 14 18 20 17 11 18 24 25 24 23 27 34 40 39 31 19 10 7 10 25 35 33 34 38 41 42 42 40 39 39 38 39 39 38 38 37 37 37 39 41 42 44 45 45
19 19 18 18 18 17 17 17 17 18 18 18 17 16 15 16 17 18 19 20 20 21 22 23 24 25 26 27 24 19 15 11 9 10 12 14 17 19 17 14 13 12 11 13 17 16 13 18 23 25 23 23 27 34 41 40 32 21 12 8 9 21 33 34 35 37 41 42 42 40 39 38 38 38 38 38 37 37 36 36 37 38 40 42 43 45
16 15 14 14 13 13 13 14 16 16 16 16 15 14 13 15 16 18 18 20 20 21 22 23 23 24 25 26 24 20 14 10 9 10 12 14 17 18 16 13 12 10 7 7 10 12 13 18 22 23 22 22 26 33 40 40 34 24 16 9 7 18 32 35 35 37 41 42 42 40 39 39 38 38 38 38 38 37 36 36 36 37 38 40 42 45
12 11 10 9 9 10 10 12 13 13 13 13 13 13 14 16 17 19 20 20 20 21 22 22 22 23 23 24 24 21 16 9 7 9 12 14 16 16 12 10 11 10 7 2 2 8 14 18 20 20 20 21 25 31 37 40 37 29 19 10 6 15 31 35 35 37 41 42 42 40 39 39 39 39 39 39 39 38 37 37 36 37 38 40 42 44
10 9 8 8 8 8 9 9 10 10 10 10 11 12 14 15 17 18 19 18 19 19 21 21 21 21 21 21 22 22 19 9 6 8 11 14 14 13 11 10 11 11 9 7 7 4 8 16 18 18 18 20 24 28 34 38 38 32 21 11 6 13 28 34 36 37 40 42 41 40 38 38 39 39 40 40 40 40 39 38 38 38 39 41 42 44
10 10 9 9 9 9 8 8 8 9 9 9 9 10 11 12 14 15 15 15 16 17 18 19 19 19 18 19 20 21 20 11 8 9 10 12 13 11 10 10 11 11 9 8 8 6 1 10 14 15 16 19 23 27 31 36 38 33 22 11 5 11 27 34 36 37 40 41 41 39 38 38 39 40 41 42 43 42 41 40 39 39 40 42 43 43
13 12 11 10 9 8 8 7 7 8 8 8 8 8 9 9 10 11 12 12 13 14 15 17 17 17 17 18 19 19 16 11 9 9 10 11 12 11 9 10 11 10 9 8 6 2 2 5 11 14 16 19 23 26 29 33 36 32 21 10 5 11 26 33 36 37 40 41 40 39 37 38 39 41 43 44 45 44 43 42 41 40 41 42 43 44
15 14 13 12 10 8 7 6 6 6 7 7 7 7 8 8 8 9 9 10 11 12 13 14 15 16 16 17 18 16 12 9 8 9 9 11 12 11 9 10 11 11 11 9 6 4 4 7 11 16 18 20 22 24 25 29 32 29 19 9 3 10 25 33 36 38 40 41 40 39 38 38 39 41 43 45 45 45 44 43 42 41 42 43 44 45
18 17 15 13 11 9 7 6 5 5 5 5 5 6 6 7 7 7 8 8 9 10 11 12 13 13 15 16 16 14 9 7 6 7 8 10 10 10 9 11 12 13 13 11 8 7 7 11 15 18 21 21 21 20 19 24 28 25 16 6 2 10 25 34 37 38 40 41 41 40 39 39 40 41 42 43 43 43 44 44 43 42 42 42 44 45
20 19 18 15 13 11 9 7 6 5 4 4 4 4 5 5 6 6 7 7 8 9 10 10 11 12 12 13 13 12 8 6 5 5 7 8 8 9 10 10 11 12 13 12 9 8 9 13 16 19 22 23 21 17 15 20 25 22 12 4 3 10 23 33 38 39 40 41 42 42 42 41 41 40 40 40 39 39 41 42 43 42 42 42 42 44
21 21 19 17 15 12 11 9 7 6 5 4 3 3 4 4 5 5 5 6 7 8 9 9 10 10 10 10 10 10 8 5 5 5 6 6 6 8 9 9 9 9 10 10 9 9 11 13 14 17 22 24 22 18 16 17 19 17 10 3 6 11 20 31 37 39 40 41 42 43 43 43 42 40 39 38 37 36 38 40 41 42 42 42 42 42
22 22 20 18 15 13 11 10 9 7 6 5 3 2 2 3 3 4 4 5 6 7 8 8 9 9 9 8 8 8 7 6 5 5 7 5 5 6 7 7 7 7 8 8 7 6 8 10 12 15 20 22 21 18 16 15 14 13 9 5 9 13 19 28 35 38 39 40 41 42 43 43 42 40 39 38 38 38 38 39 40 41 41 42 42 41
23 22 21 19 16 14 13 11 10 8 7 6 5 3 2 2 2 3 3 4 5 6 7 7 7 7 7 7 6 6 6 5 5 5 7 6 5 5 5 5 6 7 7 7 6 5 5 7 10 14 19 21 19 16 13 14 13 11 8 7 12 15 18 24 31 36 39 39 40 40 41 41 40 39 38 38 39 40 40 41 41 42 42 42 42 42
24 23 21 19 16 14 13 12 10 9 8 7 6 5 4 3 2 1 3 4 5 6 7 7 7 7 6 6 5 5 4 4 5 5 6 7 6 5 4 5 6 8 8 7 6 5 6 9 13 16 19 20 19 16 12 12 11 9 7 10 15 17 19 21 27 33 37 39 39 40 40 40 39 38 37 37 39 40 42 43 44 44 44 44 44 44
25 24 22 19 16 14 12 11 11 10 10 9 8 8 7 5 4 2 1 3 5 6 7 7 7 7 7 6 5 5 4 4 5 6 6 7 6 6 5 5 6 8 10 9 7 5 8 12 17 21 22 20 18 16 12 11 10 9 9 11 15 17 19 20 23 29 35 38 39 40 40 40 39 39 38 38 38 40 42 43 44 45 46 46 46 45
25 25 23 20 17 15 14 12 11 11 11 11 11 11 10 8 7 5 3 1 3 5 6 7 7 6 5 5 5 4 4 4 4 5 6 6 5 5 4 4 5 7 9 9 7 4 9 15 20 22 24 23 20 16 13 11 10 10 10 12 16 18 18 18 21 26 33 37 39 40 41 41 41 40 39 39 39 39 40 42 43 44 45 46 46 45
27 26 24 21 18 16 15 14 13 13 13 13 13 12 11 10 9 7 6 4 3 3 4 5 6 5 5 4 4 4 3 3 3 3 4 4 4 3 2 2 3 5 7 9 7 4 11 19 23 25 25 23 21 18 16 14 13 12 12 13 16 19 19 18 19 24 31 36 40 42 44 44 43 43 42 41 41 40 40 40 41 42 43 44 44 43
27 26 24 22 19 17 16 15 15 15 15 15 15 14 12 11 10 9 7 6 5 4 4 4 4 4 4 4 3 3 3 3 2 2 2 3 2 1 0 0 1 2 4 7 6 5 14 22 26 27 26 23 21 18 17 16 15 14 14 15 17 19 18 17 17 22 29 36 40 43 45 46 46 45 44 43 42 41 41 41 41 41 42 42 42 42
28 27 26 24 21 19 19 18 18 17 17 17 16 15 13 12 11 10 9 8 7 6 5 5 5 5 5 4 3 2 1 1 1 1 0 1 1 1 2 3 3 3 4 5 5 9 18 25 28 28 25 23 21 19 17 16 16 16 16 18 19 20 18 16 15 18 26 33 39 42 44 46 47 46 45 44 43 42 41 40 40 41 41 41 42 42
29 28 27 26 24 22 21 19 19 19 19 18 17 16 14 13 12 11 10 9 9 9 8 7 8 9 10 8 6 5 3 2 2 2 3 3 4 5 5 6 6 6 6 6 6 12 22 28 30 29 27 24 21 18 17 16 16 17 19 20 21 20 19 17 15 17 24 32 38 42 44 45 46 47 46 45 44 43 41 40 40 40 40 40 40 41
30 29 29 28 26 24 22 20 20 20 20 20 18 17 15 14 13 12 11 11 10 10 10 9 10 11 11 10 10 9 8 6 5 5 6 7 8 9 10 10 10 10 9 7 8 14 24 31 32 31 28 25 22 19 16 15 15 16 19 20 20 19 19 18 16 17 24 32 38 42 44 45 46 47 46 45 44 43 42 40 39 38 38 38 39 39
30 30 29 29 28 26 24 23 22 22 21 21 19 18 16 16 15 14 13 13 12 12 12 12 12 12 11 11 11 10 10 9 8 7 8 10 11 12 13 13 12 11 10 8 9 14 24 31 33 32 29 27 24 21 17 15 14 14 16 18 19 20 20 19 17 16 23 32 39 42 43 45 46 46 46 45 44 43 43 41 39 38 38 37 37 37
30 29 29 29 28 27 26 25 24 23 22 22 20 19 18 17 16 16 15 15 14 14 14 14 14 13 13 12 11 11 10 9 8 7 7 9 10 12 14 14 14 13 11 9 10 14 22 31 34 32 29 26 25 22 19 16 14 13 14 15 17 19 21 20 18 17 21 30 37 41 43 44 45 46 45 45 45 44 43 42 40 38 36 36 35 35
30 29 29 29 29 28 27 26 25 24 24 23 22 21 19 18 17 16 16 16 16 16 16 16 15 15 15 14 13 12 12 11 10 8 8 7 8 9 12 14 15 14 13 11 11 14 21 29 33 31 28 25 24 23 21 19 16 14 14 14 15 18 20 21 20 19 18 23 30 36 40 43 44 44 44 44 44 44 43 41 39 37 34 33 33 33
30 30 29 29 29 28 27 26 25 25 24 24 23 22 21 20 18 17 17 17 17 17 17 17 16 16 16 16 15 15 14 13 12 11 10 9 8 7 9 11 13 13 13 12 12 15 20 27 29 29 26 24 23 22 22 21 19 16 15 15 15 16 19 21 22 20 18 17 20 27 34 40 42 42 41 41 42 42 41 40 39 36 33 31 30 29
Wind_Direction
311 312 313 314 314 314 315 319 321 320 316 314 314 315 315 315 316 318 319 317 313 306 298 292 286 281 276 271 266 262 259 257 259 262 264 264 266 266 264 258 249 238 230 223 218 216 218 221 226 233 238 239 235 229 221 213 210 213 219 224 225 224 221 220 219 218 217 217 217 218 220 220 219 218 218 218 218 216 215 215 216 216 214 211 209 209
313 313 313 313 314 314 315 320 323 321 317 314 314 315 315 315 317 319 320 319 314 308 301 294 288 282 276 271 266 263 259 256 255 256 258 259 261 261 260 256 250 241 232 222 216 213 214 217 222 231 239 240 235 230 223 215 209 210 215 220 221 220 218 219 218 217 216 215 215 216 218 219 217 216 216 217 216 215 213 214 215 216 214 212 209 209
313 313 313 313 314 314 315 320 323 322 317 315 314 314 314 315 317 320 323 321 316 308 302 297 292 286 279 272 267 264 260 258 256 256 257 259 260 260 257 253 247 239 230 220 214 212 213 215 220 228 237 238 235 230 225 217 209 207 211 215 215 214 214 216 217 216 215 214 213 214 217 219 218 216 215 216 216 215 213 214 215 216 215 212 210 209
312 313 313 313 314 314 315 319 321 320 316 315 314 314 313 315 318 321 324 323 320 313 307 301 296 290 282 275 269 265 263 260 258 257 258 260 262 263 260 254 246 237 228 219 214 213 215 219 223 229 235 238 236 232 227 220 212 206 207 210 210 210 211 214 216 216 214 213 212 213 215 219 219 217 215 215 216 216 215 215 215 215 214 212 211 211
311 311 311 312 313 314 316 318 319 318 317 316 315 313 313 315 319 322 325 325 323 319 313 306 299 293 286 279 273 269 267 264 260 257 257 260 264 267 264 256 246 237 230 223 219 217 219 222 227 232 236 239 238 234 229 225 216 208 205 205 206 207 209 211 214 214 213 212 211 211 214 218 220 218 215 215 216 217 216 215 214 213 212 211 211 212
309 309 310 310 310 311 313 316 317 317 318 317 316 314 314 316 319 323 325 326 324 321 316 309 302 294 288 283 278 275 272 267 261 257 257 260 265 269 267 259 248 239 235 231 227 223 223 225 230 235 239 241 240 236 231 227 220 211 205 202 203 205 207 208 210 212 212 211 210 211 213 217 220 219 216 214 216 217 217 215 212 210 210 209 210 211
308 308 309 309 308 309 310 311 314 316 317 316 315 315 315 317 320 322 323 323 322 320 316 310 302 294 287 283 281 278 275 269 262 257 257 260 265 268 268 260 249 242 240 240 235 229 225 226 232 237 241 243 241 237 232 227 220 212 206 201 201 202 205 206 207 209 209 209 209 210 212 216 219 220 217 215 214 216 216 214 212 210 210 210 210 211
307 308 309 308 308 309 309 309 311 314 316 315 314 315 316 318 319 320 320 319 320 320 320 314 305 295 287 283 281 280 276 271 264 258 256 258 262 265 266 261 253 247 247 246 240 231 225 227 232 238 242 245 243 237 230 225 219 212 205 202 199 200 203 205 206 207 207 207 207 209 211 215 218 220 219 216 215 215 215 214 213 212 211 211 211 210
306 307 308 308 308 308 308 308 309 312 315 315 314 314 315 317 318 319 319 319 321 324 325 322 313 301 290 285 283 281 278 272 266 260 257 257 260 262 264 263 259 255 253 250 241 232 226 228 232 238 242 245 244 237 228 222 217 213 208 203 199 199 202 204 206 206 205 204 205 207 210 214 218 220 219 218 216 215 214 214 213 213 212 211 209 208
306 306 306 306 306 306 306 307 308 311 315 315 314 313 314 316 318 319 320 322 323 325 327 326 321 312 298 287 283 282 279 272 264 259 257 257 259 261 264 265 263 260 256 250 241 233 228 228 231 236 240 244 245 237 226 220 218 217 214 205 200 199 200 203 205 205 204 202 202 205 208 213 217 219 219 219 218 216 215 213 213 212 212 209 206 204
306 306 306 306 305 305 305 305 307 311 315 316 314 313 314 315 318 320 321 322 323 325 327 326 324 318 310 297 287 283 281 273 263 256 253 254 257 261 264 263 260 255 250 245 240 234 230 228 229 233 238 244 245 237 225 218 218 221 220 210 202 200 200 202 205 205 203 201 201 202 206 212 217 219 219 219 218 217 214 213 212 211 210 208 205 202
305 305 304 304 304 304 305 306 308 311 314 315 314 314 315 315 318 319 319 319 321 324 326 326 322 318 313 306 298 292 286 276 264 254 249 251 255 260 262 260 254 247 243 239 237 233 230 228 229 233 238 244 246 237 224 217 217 223 227 217 206 201 200 202 204 205 203 201 199 200 204 210 216 219 219 218 217 216 213 211 210 209 209 208 205 203
303 303 303 302 302 303 304 307 309 311 312 313 313 314 314 315 317 318 318 316 318 321 325 325 321 315 309 308 308 306 299 284 265 252 249 251 255 259 260 257 251 245 240 236 235 233 232 231 232 235 239 245 247 238 223 215 217 225 232 227 210 201 199 201 203 204 203 201 199 198 201 207 213 217 217 217 216 213 210 209 208 208 207 207 206 205
302 302 301 300 300 300 302 305 307 308 308 309 309 310 311 313 315 317 317 316 318 322 325 324 322 316 308 306 309 312 307 290 269 254 250 252 255 257 258 256 252 245 239 236 234 234 235 235 236 238 240 245 246 236 221 214 218 227 235 231 211 199 199 201 203 204 203 202 200 198 198 203 210 214 215 215 213 210 207 206 206 206 205 205 206 206
300 300 299 298 297 298 300 303 303 304 304 305 306 307 309 312 314 315 316 316 319 323 325 323 319 314 307 305 307 309 305 290 274 260 253 251 251 254 256 256 253 246 239 235 234 235 236 237 238 238 239 243 243 232 218 213 217 228 237 231 208 197 198 201 203 204 203 202 201 199 197 201 206 211 213 212 210 207 203 202 203 203 203 203 204 205
297 297 296 295 295 295 298 300 300 301 302 303 305 307 308 310 311 312 314 315 318 321 322 321 318 313 305 299 300 305 304 296 285 272 261 252 248 249 253 255 253 245 236 232 232 233 235 235 235 236 238 241 237 226 214 212 218 229 240 234 206 195 197 201 203 204 204 203 202 200 198 199 203 207 210 210 208 205 201 200 201 202 201 201 201 202
294 294 292 291 291 293 296 297 298 298 300 302 303 305 305 306 307 309 312 315 316 317 317 318 318 315 309 298 291 296 305 305 298 285 271 258 249 246 249 253 252 246 236 230 229 229 231 231 232 234 237 238 232 221 212 212 218 231 243 238 208 194 195 199 202 204 204 203 203 201 200 199 201 204 207 208 207 205 202 200 200 201 200 200 199 199
292 290 288 288 290 292 294 296 297 298 299 300 302 302 302 302 304 307 311 312 312 311 312 313 312 310 308 304 296 293 308 313 308 296 279 263 252 246 247 250 250 246 239 231 226 225 227 230 233 234 236 235 227 218 211 211 220 235 248 243 211 194 194 198 201 203 204 204 203 202 201 200 200 202 204 205 206 205 203 201 200 200 201 200 199 198
290 288 286 287 289 291 292 294 295 296 297 298 299 299 300 301 304 307 309 309 307 306 307 307 306 304 302 300 295 295 310 316 312 302 288 271 257 247 247 247 248 246 240 232 224 220 224 231 236 238 238 232 223 215 211 212 221 238 254 245 210 194 193 197 200 203 204 204 204 203 202 200 199 200 201 201 202 204 206 204 202 201 201 201 201 199
289 288 287 287 288 290 292 293 293 293 294 294 294 296 298 302 305 306 305 304 303 302 302 303 302 301 300 299 298 299 310 316 314 306 297 283 267 254 246 244 246 245 240 228 219 216 227 233 236 238 238 229 220 214 210 211 221 239 257 248 210 195 194 197 200 202 204 204 204 203 202 200 199 198 198 197 197 201 206 208 206 204 202 202 203 202
286 286 284 285 288 291 292 292 293 293 292 292 293 295 298 302 304 304 301 300 300 300 300 300 299 299 301 301 300 301 310 319 319 315 307 294 278 261 248 247 250 246 237 221 213 215 231 232 232 233 235 227 219 213 209 210 220 241 264 255 213 196 194 197 200 202 203 203 203 203 202 200 199 198 198 196 194 195 201 206 208 207 205 204 204 204
283 284 286 288 290 291 291 293 295 296 295 296 297 298 300 302 301 300 299 299 299 298 298 297 298 300 302 301 299 298 308 317 320 318 313 303 291 272 253 252 254 247 232 216 210 215 231 228 226 227 231 228 222 214 209 209 219 241 267 254 212 196 194 197 200 201 202 202 202 202 201 199 198 199 199 198 195 194 195 201 205 207 206 205 205 205
287 287 289 290 292 293 294 296 298 300 302 303 302 302 302 303 301 299 298 296 295 294 295 297 299 301 301 299 298 299 305 313 318 319 314 305 297 285 261 259 258 247 227 212 210 218 232 222 220 223 230 230 225 216 210 209 218 239 267 247 206 196 194 196 199 200 201 201 201 201 200 199 198 199 200 201 199 197 196 198 201 204 205 205 205 204
288 288 289 292 294 296 296 296 298 300 302 303 304 304 303 301 298 294 292 290 290 292 295 299 300 300 300 299 298 299 303 307 312 312 305 295 288 280 269 270 269 254 228 212 212 223 235 217 215 221 229 230 225 216 209 208 217 237 268 247 201 195 195 196 198 198 198 199 200 200 200 199 198 199 200 202 202 201 200 201 202 203 204 205 205 204
290 291 292 292 292 292 291 291 292 293 293 294 293 292 291 289 287 285 284 286 290 294 298 300 298 296 296 297 298 298 301 303 303 300 295 289 282 275 268 279 280 265 239 216 214 224 235 215 212 219 228 228 222 214 207 208 216 234 269 255 199 195 195 196 197 196 196 197 198 199 199 199 198 199 200 201 202 203 203 205 205 205 205 205 205 205
292 289 287 284 282 280 278 278 278 279 279 280 279 279 280 281 283 285 288 290 292 294 294 292 291 291 293 296 297 298 300 302 303 302 300 297 290 281 274 289 291 276 250 223 218 223 230 208 209 217 225 224 218 211 207 208 214 231 269 270 203 194 195 196 196 195 195 195 197 198 198 198 198 198 199 199 200 202 204 206 208 209 208 208 207 207
291 284 280 277 275 274 273 273 273 273 273 271 271 272 275 279 282 285 287 287 286 286 286 287 289 292 295 297 298 299 300 303 308 312 310 300 291 286 286 299 303 290 261 234 225 222 217 199 204 214 221 220 214 209 206 208 214 230 264 278 211 195 195 195 195 194 194 194 195 196 197 198 198 198 198 198 198 200 202 205 207 209 209 208 208 208
294 289 285 281 278 276 275 274 272 270 268 266 266 267 271 275 278 280 280 278 278 279 281 284 288 292 296 298 299 298 299 304 310 314 311 297 289 288 291 303 314 311 283 246 228 215 197 189 198 209 218 217 211 207 206 208 214 227 249 272 222 198 195 195 195 194 193 193 193 194 196 197 197 197 197 196 197 198 200 202 204 205 205 206 206 207
302 298 294 288 284 280 277 273 269 266 264 263 262 262 263 265 266 268 270 270 272 275 278 281 284 289 293 296 297 296 295 299 305 308 306 292 286 286 291 307 328 335 310 251 211 188 173 182 196 208 215 214 209 207 206 207 213 223 239 269 235 199 195 195 194 193 192 192 192 193 194 195 196 196 195 195 195 196 196 197 198 199 199 201 203 204
311 307 301 296 291 288 283 279 276 273 269 264 258 254 252 252 253 256 260 265 270 273 276 279 283 286 291 295 297 296 293 287 292 301 301 295 291 290 294 316 345 359 353 338 151 146 152 176 195 209 212 210 207 206 207 209 213 221 235 263 246 199 194 194 193 192 191 192 192 192 192 193 194 194 194 194 193 193 192 192 192 192 194 197 200 201
327 324 320 315 311 305 300 295 290 285 278 269 260 253 250 249 251 255 260 265 269 272 274 278 281 285 289 293 294 294 293 287 300 312 307 301 298 298 304 326 351 6 8 6 6 39 131 160 183 205 210 206 203 204 207 210 214 220 232 258 252 198 192 193 191 190 189 190 191 192 192 192 192 192 193 192 191 190 189 188 188 189 191 193 196 197
347 345 341 336 329 322 315 307 299 292 285 278 271 265 260 258 258 260 263 267 270 272 274 277 280 283 285 287 286 286 289 297 322 329 320 310 304 302 309 328 347 2 10 6 354 339 310 145 166 192 205 202 199 202 207 211 214 218 230 256 258 196 190 190 189 187 187 188 190 191 191 190 190 191 191 190 189 188 187 186 186 187 189 191 192 192
358 356 352 346 339 331 323 313 303 295 290 287 283 280 275 271 268 268 269 271 273 274 275 276 278 279 281 282 283 284 291 311 333 338 330 318 310 308 313 330 344 355 8 12 13 353 234 160 158 172 189 194 195 199 206 210 213 217 229 254 254 191 187 188 187 184 183 185 187 188 188 189 189 189 189 189 188 187 186 186 187 187 188 189 188 188
3 1 357 352 347 341 333 321 309 300 295 293 291 289 286 281 277 274 273 274 275 275 275 274 275 277 280 283 286 291 303 327 343 341 334 322 314 309 311 332 344 351 358 10 36 83 138 159 154 155 167 181 189 195 204 209 212 217 230 250 237 181 183 186 185 182 180 181 183 184 185 186 186 187 187 187 187 187 187 187 187 188 189 188 187 185
4 2 0 357 354 351 348 341 329 316 307 300 297 293 290 285 281 278 276 275 273 273 273 273 274 276 280 285 290 298 315 345 356 347 338 326 317 309 307 330 343 347 351 2 24 59 101 139 147 151 158 166 177 189 201 208 212 218 231 243 186 170 179 184 184 181 178 178 179 181 182 183 184 185 186 187 188 188 188 188 188 189 190 190 188 185
4 3 3 2 0 360 360 357 352 343 331 318 305 295 290 284 279 277 276 274 272 271 271 271 273 276 280 285 292 300 316 343 360 355 345 333 320 309 306 323 338 344 345 355 16 53 94 126 141 149 155 158 162 171 190 206 213 218 227 226 135 156 173 179 181 180 177 177 178 179 180 180 182 184 186 188 189 190 189 189 189 190 191 192 190 188
4 4 4 4 4 4 5 5 4 2 356 345 322 296 286 279 275 273 273 274 273 272 272 272 273 275 279 285 291 298 309 325 349 359 354 339 320 307 303 317 331 338 339 348 14 58 102 117 127 140 152 157 158 164 183 201 211 216 219 179 118 137 160 172 177 177 177 177 178 178 179 179 180 183 186 189 190 191 191 191 190 190 191 192 192 191
5 4 5 6 7 8 9 12 13 12 9 3 354 331 301 285 279 276 276 276 277 278 278 277 275 275 277 281 287 294 303 312 335 358 4 347 322 304 300 325 341 344 342 349 13 58 98 111 114 125 143 151 156 165 180 194 206 212 208 152 112 122 146 164 171 175 177 178 179 179 179 179 180 182 184 187 189 191 192 193 193 192 192 193 193 194
6 5 6 8 9 11 13 15 17 18 20 21 19 10 351 327 304 290 284 282 283 285 285 283 280 277 275 276 280 288 298 308 323 347 2 356 338 313 303 330 353 0 357 4 19 51 87 104 113 121 130 136 144 157 178 194 205 208 189 131 108 113 133 152 164 171 175 177 179 180 180 180 181 182 183 183 184 187 190 192 194 194 194 193 193 194
7 7 8 10 13 15 17 18 20 24 28 30 30 27 23 16 359 309 280 277 280 283 283 282 279 277 275 274 277 283 295 310 326 338 347 350 344 327 310 324 346 359 7 16 30 58 101 108 115 121 125 129 140 154 164 188 203 203 167 116 102 109 128 143 156 166 172 175 178 180 181 181 182 183 183 181 181 183 185 188 191 194 194 193 193 192
8 9 11 14 17 21 24 26 28 30 31 34 37 40 40 40 40 34 276 267 270 273 275 275 275 274 274 273 274 281 296 312 332 340 338 337 332 323 311 320 336 351 4 13 27 66 111 113 115 117 121 129 144 158 164 179 191 186 152 111 102 110 127 138 150 161 168 173 176 179 180 182 183 184 183 181 180 180 182 184 187 190 192 193 192 191
11 11 13 16 19 24 29 32 34 36 38 40 40 40 40 41 40 39 33 343 285 275 274 276 279 279 276 271 271 276 288 301 319 333 337 329 319 311 304 320 339 351 360 4 11 60 116 119 119 121 124 131 141 151 157 168 174 165 137 106 96 102 117 128 144 157 165 169 173 177 180 181 182 182 181 180 179 179 181 182 184 186 188 189 189 189
13 14 16 19 22 27 32 35 38 40 42 42 42 42 42 42 41 38 34 26 360 317 298 296 296 297 297 289 276 267 272 282 300 321 334 336 324 304 295 312 339 350 352 354 0 60 118 122 123 126 129 135 143 149 150 157 159 152 133 105 95 98 107 117 137 154 163 167 171 175 179 180 181 180 179 179 178 179 180 181 182 183 184 184 185 186
16 17 19 22 26 31 35 37 38 39 40 40 41 43 45 46 45 42 39 37 28 7 345 334 324 321 320 306 288 270 259 261 276 300 319 341 343 325 248 23 357 344 342 345 358 85 118 123 126 130 134 141 146 148 147 147 146 141 127 107 95 93 99 113 132 149 160 166 170 174 177 180 181 180 179 179 178 179 179 180 181 181 181 181 182 183
18 20 21 24 27 30 32 35 37 38 39 40 42 43 46 48 47 45 44 45 43 37 29 20 13 12 10 356 337 320 288 246 232 239 289 28 52 98 122 105 69 34 11 1 38 103 119 123 128 135 142 147 148 146 143 139 135 128 116 103 94 89 89 98 119 143 157 163 167 171 175 179 180 180 179 178 178 178 179 180 180 180 180 181 181 182
20 20 22 24 26 29 31 34 37 39 40 41 42 45 47 50 50 48 47 48 48 48 45 40 34 31 29 25 21 22 34 59 97 120 120 100 95 102 114 105 89 69 50 34 67 108 120 124 130 138 148 151 150 146 142 135 128 121 112 102 96 92 90 94 110 138 156 162 164 168 172 177 179 179 178 177 177 177 178 179 180 180 181 181 181 182
19 20 22 23 26 28 32 35 37 39 41 42 44 45 47 49 50 50 50 50 50 51 51 49 44 40 36 32 30 31 37 50 70 92 107 105 106 107 105 105 95 82 72 58 80 111 122 128 135 143 150 152 151 148 144 137 127 117 110 104 100 97 95 95 106 134 156 161 162 164 170 174 176 177 175 175 174 175 175 177 178 179 180 181 181 182
19 21 22 24 25 27 31 34 36 38 40 42 45 47 48 48 48 48 50 49 49 49 49 50 49 47 44 41 38 36 37 41 53 74 94 97 101 104 102 102 99 93 84 77 93 113 123 131 138 145 150 151 151 149 149 144 135 123 114 108 104 101 97 95 101 126 152 157 158 160 164 168 171 172 170 169 169 170 172 173 174 175 177 178 180 181
20 21 23 24 25 26 29 32 36 37 38 40 43 46 48 49 48 48 48 48 46 46 46 48 48 48 46 45 44 42 41 41 45 56 75 89 98 102 101 100 100 99 94 92 101 115 123 130 137 142 145 147 148 150 151 148 142 134 125 117 110 105 102 99 101 117 141 152 154 155 157 161 165 166 166 164 163 164 167 168 168 169 171 174 176 178
21 23 24 26 26 26 28 31 34 36 38 39 41 43 46 48 50 50 50 49 47 46 45 47 48 48 47 47 46 45 43 41 41 43 50 66 83 94 97 99 101 103 101 102 108 114 117 122 128 134 139 141 143 145 148 148 147 143 137 130 121 114 110 106 105 109 124 143 151 153 153 156 159 162 163 162 161 160 161 162 162 164 166 169 172 174
22 24 25 27 27 27 28 30 33 35 37 39 40 42 44 46 49 51 51 50 48 46 46 47 48 48 48 48 47 46 44 41 37 35 37 41 53 72 88 97 101 105 107 110 114 115 112 111 113 118 126 132 136 139 143 146 149 149 145 141 134 125 117 112 108 106 108 124 143 152 154 154 156 160 163 162 160 158 158 158 159 160 162 164 166 168